Weather History for Branson West Muni - Emerson F, MO

Change the Weather History Date:

Wednesday, January 8, 2014

  Actual Average (KHRO) Record (KHRO)
Temperature  
Mean Temperature 32 °F 36 °F  
Max Temperature 35 °F 46 °F 72 °F (1939)
Min Temperature 28 °F 26 °F -5 °F (1970)
Degree Days  
Heating Degree Days 34 29  
Month to date heating degree days 232  
Since 1 July heating degree days 1831  
Cooling Degree Days 0 0  
Month to date cooling degree days 0  
Year to date cooling degree days 0  
Moisture  
Dew Point 23 °F    
Average Humidity 73    
Maximum Humidity 100    
Minimum Humidity 44    
Precipitation  
Precipitation 0.12 in 0.08 in 2.00 in (1920)
Month to date precipitation 0.67  
Year to date precipitation 0.67  
Snow  
Snow 0.00 in 0.10 in 5.00 in (1944)
Month to date snowfall 0.8  
Since 1 July snowfall 2.6  
Snow Depth -    
Sea Level Pressure  
Sea Level Pressure 30.27 in    
Wind  
Wind Speed 5 mph (SE)    
Max Wind Speed 13 mph    
Max Gust Speed 20 mph    
Visibility 7 miles    
Events Rain , Snow    
T = Trace of Precipitation, MM = Missing Value Source: NWS Daily Summary

Daily Weather History Graph

Daily Weather History Graph

Search for Another Location

Airport:

Trip Planner

Search our weather history database for the weather conditions in past years. The results will help you decide how hot, cold, wet, or windy it might be!

Date:

Astronomy

Jan. 08, 2014 Rise Set
Actual Time 7:26 AM CST 5:14 PM CST
Civil Twilight 6:57 AM CST 5:43 PM CST
Nautical Twilight 6:25 AM CST 6:15 PM CST
Astronomical Twilight 5:54 AM CST 6:46 PM CST
Moon 12:02 PM CST (1/8) 12:38 AM CST (1/8)
Length of Visible Light 10h 45m
Length of Day
9h 48m
First Quarter, 56% of the Moon is Illuminated
Jan 8
First Quarter
Jan 15
Full
Jan 23
Last Quarter
Jan 30
New
Feb 6
First Quarter

Hourly Weather History & Observations

Time (CST) Temp. Windchill Dew Point Humidity Pressure Visibility Wind Dir Wind Speed Gust Speed Precip Events Conditions
12:15 AM 32.0 °F 27.5 °F 15.8 °F 51% 30.25 in 10.0 mi SSW 4.6 mph - N/A   Clear
12:55 AM 30.2 °F 24.3 °F 15.8 °F 55% 30.23 in 10.0 mi South 5.8 mph - N/A   Clear
1:15 AM 30.2 °F 25.4 °F 15.8 °F 55% 30.24 in 10.0 mi SSW 4.6 mph - N/A   Clear
1:35 AM 30.2 °F 26.7 °F 15.8 °F 55% 30.24 in 10.0 mi South 3.5 mph - N/A   Clear
1:55 AM 30.2 °F 26.7 °F 15.8 °F 55% 30.25 in 10.0 mi South 3.5 mph - N/A   Clear
2:15 AM 30.2 °F 26.7 °F 15.8 °F 55% 30.27 in 10.0 mi SSW 3.5 mph - N/A   Clear
2:35 AM 30.2 °F 25.4 °F 15.8 °F 55% 30.27 in 10.0 mi South 4.6 mph - N/A   Clear
2:55 AM 30.2 °F 26.7 °F 14.0 °F 51% 30.27 in 10.0 mi SSE 3.5 mph - N/A   Clear
3:15 AM 30.2 °F 25.4 °F 15.8 °F 55% 30.26 in 10.0 mi SSE 4.6 mph - N/A   Clear
3:35 AM 30.2 °F 25.4 °F 15.8 °F 55% 30.26 in 10.0 mi ESE 4.6 mph - N/A   Clear
3:55 AM 28.4 °F 23.3 °F 19.4 °F 69% 30.25 in 10.0 mi SE 4.6 mph - N/A   Clear
4:15 AM 28.4 °F 22.2 °F 23.0 °F 80% 30.24 in 10.0 mi SE 5.8 mph - N/A   Clear
4:35 AM 28.4 °F 24.6 °F 21.2 °F 74% 30.24 in 10.0 mi SE 3.5 mph - N/A   Clear
4:55 AM 28.4 °F 24.6 °F 19.4 °F 69% 30.25 in 10.0 mi SSE 3.5 mph - N/A   Clear
5:15 AM 30.2 °F 24.3 °F 17.6 °F 60% 30.25 in 10.0 mi SSE 5.8 mph - N/A   Clear
5:35 AM 30.2 °F 25.4 °F 17.6 °F 60% 30.25 in 10.0 mi SSE 4.6 mph - N/A   Clear
5:55 AM 32.0 °F 27.5 °F 15.8 °F 51% 30.25 in 10.0 mi SSE 4.6 mph - N/A   Clear
6:15 AM 32.0 °F 27.5 °F 12.2 °F 44% 30.25 in 10.0 mi SSE 4.6 mph - N/A   Clear
6:35 AM 28.4 °F 22.2 °F 15.8 °F 59% 30.25 in 10.0 mi ESE 5.8 mph - N/A   Clear
6:55 AM 28.4 °F 23.3 °F 17.6 °F 64% 30.26 in 10.0 mi SE 4.6 mph - N/A   Clear
7:15 AM 28.4 °F 21.2 °F 17.6 °F 64% 30.25 in 10.0 mi SE 6.9 mph - N/A   Mostly Cloudy
7:35 AM 28.4 °F 23.3 °F 15.8 °F 59% 30.25 in 10.0 mi ESE 4.6 mph - N/A   Overcast
7:55 AM 28.4 °F 23.3 °F 14.0 °F 55% 30.26 in 10.0 mi ESE 4.6 mph - N/A   Mostly Cloudy
8:15 AM 28.4 °F 23.3 °F 15.8 °F 59% 30.26 in 10.0 mi East 4.6 mph - N/A   Partly Cloudy
8:35 AM 28.4 °F 23.3 °F 14.0 °F 55% 30.27 in 10.0 mi ESE 4.6 mph - N/A   Clear
8:55 AM 28.4 °F 23.3 °F 15.8 °F 59% 30.28 in 10.0 mi ESE 4.6 mph - N/A   Clear
9:15 AM 28.4 °F 24.6 °F 15.8 °F 59% 30.29 in 10.0 mi East 3.5 mph - N/A   Clear
9:35 AM 32.0 °F 26.4 °F 15.8 °F 51% 30.30 in 10.0 mi ESE 5.8 mph - N/A   Clear
9:55 AM 32.0 °F 28.7 °F 15.8 °F 51% 30.31 in 10.0 mi ESE 3.5 mph - N/A   Scattered Clouds
10:15 AM 32.0 °F 27.5 °F 17.6 °F 55% 30.31 in 10.0 mi ESE 4.6 mph - N/A   Overcast
10:35 AM 33.8 °F 29.6 °F 17.6 °F 52% 30.31 in 10.0 mi SE 4.6 mph - N/A   Overcast
10:55 AM 35.6 °F 32.8 °F 17.6 °F 48% 30.30 in 10.0 mi ESE 3.5 mph - N/A   Overcast
11:15 AM 35.6 °F 31.7 °F 17.6 °F 48% 30.29 in 10.0 mi SE 4.6 mph - N/A   Overcast
11:35 AM 33.8 °F 29.6 °F 19.4 °F 56% 30.29 in 10.0 mi East 4.6 mph - N/A   Overcast
11:55 AM 33.8 °F 29.6 °F 19.4 °F 56% 30.28 in 10.0 mi ESE 4.6 mph - N/A   Overcast
12:15 PM 35.6 °F 31.7 °F 19.4 °F 52% 30.27 in 10.0 mi ESE 4.6 mph - N/A   Overcast
12:35 PM 35.6 °F 32.8 °F 19.4 °F 52% 30.26 in 10.0 mi ESE 3.5 mph - N/A   Overcast
12:55 PM 35.6 °F 32.8 °F 19.4 °F 52% 30.25 in 10.0 mi ESE 3.5 mph - N/A   Overcast
1:15 PM 35.6 °F 30.7 °F 19.4 °F 52% 30.25 in 10.0 mi East 5.8 mph - N/A   Mostly Cloudy
1:35 PM 33.8 °F 28.6 °F 21.2 °F 60% 30.25 in 10.0 mi ESE 5.8 mph - N/A   Mostly Cloudy
1:55 PM 32.0 °F 25.6 °F 24.8 °F 75% 30.25 in 2.0 mi ESE 6.9 mph - N/A Snow Light Snow
2:15 PM 32.0 °F 27.5 °F 28.4 °F 87% 30.25 in 1.0 mi East 4.6 mph - 0.01 in Snow Light Snow
2:35 PM 32.0 °F 28.7 °F 28.4 °F 87% 30.25 in 1.0 mi East 3.5 mph - 0.03 in Snow Light Snow
2:55 PM 32.0 °F 27.5 °F 30.2 °F 93% 30.25 in 1.2 mi East 4.6 mph - 0.05 in Snow Light Snow
3:15 PM 32.0 °F 27.5 °F 30.2 °F 93% 30.25 in 1.0 mi ESE 4.6 mph - 0.01 in Snow Light Snow
3:35 PM 32.0 °F 26.4 °F 32.0 °F 100% 30.25 in 1.2 mi ESE 5.8 mph - 0.02 in Snow Light Snow
3:55 PM 32.0 °F 26.4 °F 32.0 °F 100% 30.25 in 1.2 mi ESE 5.8 mph - 0.03 in Snow Light Snow
4:15 PM 32.0 °F 27.5 °F 32.0 °F 100% 30.25 in 1.0 mi East 4.6 mph - N/A Snow Light Snow
4:35 PM 32.0 °F 28.7 °F 30.2 °F 93% 30.25 in 1.0 mi East 3.5 mph - 0.03 in Snow Light Snow
4:55 PM 30.2 °F 24.3 °F 30.2 °F 100% 30.25 in 1.0 mi ENE 5.8 mph - 0.04 in   Overcast
5:15 PM 30.2 °F 24.3 °F 30.2 °F 100% 30.25 in 1.0 mi ESE 5.8 mph - N/A Rain Light Freezing Rain
5:35 PM 30.2 °F 24.3 °F 30.2 °F 100% 30.26 in 2.5 mi ESE 5.8 mph - N/A   Overcast
5:55 PM 32.0 °F 25.6 °F 30.2 °F 93% 30.26 in 2.5 mi ESE 6.9 mph - N/A   Overcast
6:15 PM 32.0 °F 24.2 °F 30.2 °F 93% 30.26 in 2.5 mi ESE 9.2 mph - N/A   Overcast
6:35 PM 32.0 °F 24.2 °F 30.2 °F 93% 30.26 in 2.5 mi ESE 9.2 mph - N/A   Overcast
6:55 PM 32.0 °F 23.0 °F 30.2 °F 93% 30.27 in 3.0 mi ESE 11.5 mph - N/A   Overcast
7:15 PM 32.0 °F 23.6 °F 30.2 °F 93% 30.27 in 4.0 mi ESE 10.4 mph 17.3 mph N/A   Overcast
7:35 PM 32.0 °F 24.2 °F 30.2 °F 93% 30.28 in 2.5 mi ESE 9.2 mph - N/A   Overcast
7:55 PM 32.0 °F 24.2 °F 30.2 °F 93% 30.29 in 2.5 mi ESE 9.2 mph - N/A   Overcast
8:15 PM 32.0 °F 22.5 °F 30.2 °F 93% 30.29 in 2.0 mi ESE 12.7 mph 19.6 mph N/A   Overcast
8:35 PM 32.0 °F 23.6 °F 30.2 °F 93% 30.29 in 3.0 mi ESE 10.4 mph 16.1 mph N/A   Overcast
8:55 PM 30.2 °F 21.9 °F 30.2 °F 100% 30.30 in 3.0 mi ESE 9.2 mph 17.3 mph N/A   Overcast
9:15 PM 30.2 °F 21.3 °F 28.4 °F 93% 30.29 in 5.0 mi SE 10.4 mph - N/A   Overcast
9:35 PM 30.2 °F 20.2 °F 28.4 °F 93% 30.29 in 3.0 mi ESE 12.7 mph 18.4 mph N/A   Overcast
9:55 PM 30.2 °F 20.2 °F 28.4 °F 93% 30.29 in 8.0 mi ESE 12.7 mph 17.3 mph N/A   Overcast
10:15 PM 30.2 °F 20.8 °F 28.4 °F 93% 30.29 in 3.0 mi ESE 11.5 mph 19.6 mph N/A   Overcast
10:35 PM 30.2 °F 21.9 °F 28.4 °F 93% 30.29 in 2.0 mi ESE 9.2 mph - N/A   Overcast
10:55 PM 30.2 °F 20.8 °F 28.4 °F 93% 30.28 in 1.8 mi ESE 11.5 mph 16.1 mph N/A   Overcast
11:15 PM 30.2 °F 22.6 °F 28.4 °F 93% 30.28 in 2.0 mi ESE 8.1 mph - N/A   Overcast
11:35 PM 28.4 °F 18.0 °F 28.4 °F 100% 30.28 in 4.0 mi ESE 12.7 mph 17.3 mph N/A   Overcast
11:55 PM 28.4 °F 18.5 °F 28.4 °F 100% 30.28 in 2.0 mi ESE 11.5 mph - N/A   Overcast